OBJECT E

基本信息
目录编号:
61898
目录名称:
OBJECT E
国际标识:
2024-205E
轨道中心:
EARTH
物体状态:
在轨
发射日期:
2024-11-11 UTC
国别:
中国 (CN)
轨道信息
数据来源: 国际轨道数据
星历时间: 2026-09-04T14:20:55+0800
半长轴: 6908.245km
偏心率: 0.0056482
轨道倾角: 97.405°
近地点辐角: 89.415°
升交点赤经: 315.497°
平近点角: 271.356°
近地点: 491.088km
远地点: 569.128km
周期: 95.238分钟
每日圈数: 15.119981
详细信息
发射场:
JSC
轨道高度:
LEO
数据来源:
AOE Working Group
参考系:
TEME
时间系统:
UTC
历元类型:
SGP4
2D轨道图
3D轨道图
轨道高度分析图
轨道倾角分析图
轨道综合分析图
查看轨道综合分析图